| time (UTC) | temp F | wind direction | speed MPH | gust MPH | rain 1hr in | rain 24hr in | rain mn in | humidity % | barometer mb |
| 20260504041554 | 48 | 211 | 1.0 | 5.0 | 0.00 | 0.00 | 0.00 | 50 | 1012.1 |
| 20260504041054 | 48 | 219 | 1.0 | 6.0 | 0.00 | 0.00 | 0.00 | 50 | 1011.9 |
| 20260504040554 | 48 | 220 | 2.0 | 7.0 | 0.00 | 0.00 | 0.00 | 50 | 1011.8 |
| 20260504040056 | 48 | 183 | 4.0 | 7.0 | 0.00 | 0.00 | 0.00 | 50 | 1011.9 |
| 20260504035552 | 48 | 214 | 2.0 | 7.0 | 0.00 | 0.00 | 0.00 | 50 | 1011.7 |
| 20260504035051 | 48 | 213 | 3.0 | 7.0 | 0.00 | 0.00 | 0.00 | 49 | 1011.7 |
| 20260504034554 | 48 | 214 | 3.0 | 7.0 | 0.00 | 0.00 | 0.00 | 49 | 1011.7 |
| 20260504034050 | 48 | 199 | 1.0 | 5.0 | 0.00 | 0.00 | 0.00 | 48 | 1011.7 |
| 20260504033553 | 49 | 192 | 0.0 | 6.0 | 0.00 | 0.00 | 0.00 | 48 | 1011.6 |
| 20260504033059 | 49 | 218 | 2.0 | 7.0 | 0.00 | 0.00 | 0.00 | 48 | 1011.7 |
| 20260504032553 | 49 | 226 | 3.0 | 7.0 | 0.00 | 0.00 | 0.00 | 47 | 1011.6 |
| 20260504032053 | 50 | 215 | 1.0 | 5.0 | 0.00 | 0.00 | 0.00 | 46 | 1011.6 |
| 20260504031553 | 50 | 251 | 1.0 | 3.0 | 0.00 | 0.00 | 0.00 | 45 | 1011.5 |
| 20260504031053 | 50 | 244 | 1.0 | 3.0 | 0.00 | 0.00 | 0.00 | 45 | 1011.5 |
| 20260504030553 | 50 | 231 | 1.0 | 3.0 | 0.00 | 0.00 | 0.00 | 45 | 1011.5 |
| 20260504030055 | 50 | 235 | 1.0 | 4.0 | 0.00 | 0.00 | 0.00 | 45 | 1011.5 |
| 20260504025553 | 50 | 210 | 1.0 | 4.0 | 0.00 | 0.00 | 0.00 | 45 | 1011.5 |
| 20260504025053 | 50 | 231 | 1.0 | 4.0 | 0.00 | 0.00 | 0.00 | 45 | 1011.5 |
| 20260504024554 | 50 | 213 | 1.0 | 4.0 | 0.00 | 0.00 | 0.00 | 45 | 1011.6 |
| 20260504024053 | 50 | 252 | 1.0 | 4.0 | 0.00 | 0.00 | 0.00 | 45 | 1011.5 |
| 20260504023551 | 50 | 291 | 1.0 | 7.0 | 0.00 | 0.00 | 0.00 | 45 | 1011.5 |
| 20260504023057 | 50 | 247 | 1.0 | 7.0 | 0.00 | 0.00 | 0.00 | 45 | 1011.6 |
| 20260504022551 | 50 | 228 | 1.0 | 5.0 | 0.00 | 0.00 | 0.00 | 45 | 1011.6 |
| 20260504022051 | 51 | 222 | 2.0 | 5.0 | 0.00 | 0.00 | 0.00 | 45 | 1011.6 |
| 20260504021600 | 51 | 212 | 1.0 | 3.0 | 0.00 | 0.00 | 0.00 | 44 | 1011.5 |
| 20260504021050 | 51 | 214 | 1.0 | 4.0 | 0.00 | 0.00 | 0.00 | 44 | 1011.6 |
| 20260504020550 | 51 | 227 | 1.0 | 4.0 | 0.00 | 0.00 | 0.00 | 43 | 1011.5 |
| 20260504020137 | 51 | 229 | 1.0 | 5.0 | 0.00 | 0.00 | 0.00 | 44 | 1011.5 |
| 20260504015553 | 51 | 232 | 2.0 | 5.0 | 0.00 | 0.00 | 0.00 | 44 | 1011.4 |
| 20260504015053 | 51 | 227 | 1.0 | 4.0 | 0.00 | 0.00 | 0.00 | 44 | 1011.5 |
| 20260504014604 | 51 | 233 | 1.0 | 4.0 | 0.00 | 0.00 | 0.00 | 43 | 1011.5 |
| 20260504014050 | 51 | 222 | 1.0 | 3.0 | 0.00 | 0.00 | 0.00 | 43 | 1011.4 |
| 20260504013551 | 51 | 230 | 1.0 | 3.0 | 0.00 | 0.00 | 0.00 | 42 | 1011.4 |
| 20260504013117 | 51 | 241 | 1.0 | 3.0 | 0.00 | 0.00 | 0.00 | 42 | 1011.4 |
| 20260504012553 | 52 | 218 | 1.0 | 3.0 | 0.00 | 0.00 | 0.00 | 43 | 1011.3 |
| 20260504012055 | 52 | 224 | 1.0 | 3.0 | 0.00 | 0.00 | 0.00 | 41 | 1011.4 |
| 20260504011600 | 52 | 241 | 0.0 | 3.0 | 0.00 | 0.00 | 0.00 | 41 | 1011.4 |
| 20260504011052 | 52 | 218 | 0.0 | 4.0 | 0.00 | 0.00 | 0.00 | 41 | 1011.3 |
| 20260504010552 | 53 | 236 | 1.0 | 4.0 | 0.00 | 0.00 | 0.00 | 40 | 1011.2 |
| 20260504010054 | 53 | 218 | 1.0 | 3.0 | 0.00 | 0.00 | 0.00 | 40 | 1011.2 |
| 20260504005552 | 53 | 229 | 1.0 | 3.0 | 0.00 | 0.00 | 0.00 | 39 | 1011.1 |
| 20260504005052 | 53 | 0 | 1.0 | 3.0 | 0.00 | 0.00 | 0.00 | 40 | 1011.0 |
| 20260504004640 | 53 | 231 | 1.0 | 3.0 | 0.00 | 0.00 | 0.00 | 39 | 1010.9 |
| 20260504004053 | 53 | 0 | 1.0 | 3.0 | 0.00 | 0.00 | 0.00 | 39 | 1010.9 |
| 20260504003552 | 54 | 245 | 1.0 | 3.0 | 0.00 | 0.00 | 0.00 | 38 | 1010.9 |
| 20260504003103 | 54 | 283 | 0.0 | 2.0 | 0.00 | 0.00 | 0.00 | 38 | 1010.8 |
| 20260504002552 | 54 | 275 | 0.0 | 3.0 | 0.00 | 0.00 | 0.00 | 38 | 1010.7 |
| 20260504002052 | 54 | 0 | 0.0 | 3.0 | 0.00 | 0.00 | 0.00 | 38 | 1010.7 |
| 20260504001621 | 55 | 0 | 0.0 | 3.0 | 0.00 | 0.00 | 0.00 | 37 | 1010.6 |
| 20260504001052 | 55 | 291 | 1.0 | 5.0 | 0.00 | 0.00 | 0.00 | 37 | 1010.6 |
| 20260504000552 | 55 | 274 | 0.0 | 7.0 | 0.00 | 0.00 | 0.00 | 37 | 1010.6 |
| 20260504000104 | 55 | 0 | 1.0 | 8.0 | 0.00 | 0.00 | 0.00 | 36 | 1010.5 |
| 20260503235554 | 55 | 256 | 2.0 | 8.0 | 0.00 | 0.00 | 0.00 | 36 | 1010.4 |
| 20260503235054 | 56 | 278 | 1.0 | 8.0 | 0.00 | 0.00 | 0.00 | 36 | 1010.4 |
| 20260503234605 | 56 | 279 | 1.0 | 8.0 | 0.00 | 0.00 | 0.00 | 35 | 1010.3 |
| 20260503234053 | 56 | 240 | 2.0 | 8.0 | 0.00 | 0.00 | 0.00 | 35 | 1010.3 |
| 20260503233553 | 56 | 274 | 1.0 | 8.0 | 0.00 | 0.00 | 0.00 | 35 | 1010.3 |
| 20260503233100 | 57 | 293 | 2.0 | 8.0 | 0.00 | 0.00 | 0.00 | 35 | 1010.2 |
| 20260503232552 | 57 | 245 | 2.0 | 8.0 | 0.00 | 0.00 | 0.00 | 34 | 1010.1 |
| 20260503232052 | 57 | 256 | 0.0 | 8.0 | 0.00 | 0.00 | 0.00 | 35 | 1010.1 |
| 20260503231556 | 57 | 272 | 1.0 | 4.0 | 0.00 | 0.00 | 0.00 | 34 | 1010.2 |
| 20260503231108 | 58 | 233 | 1.0 | 9.0 | 0.00 | 0.00 | 0.00 | 34 | 1010.1 |
| 20260503230555 | 58 | 236 | 2.0 | 11.0 | 0.00 | 0.00 | 0.00 | 33 | 1010.1 |
| 20260503230110 | 58 | 25 | 2.0 | 13.0 | 0.00 | 0.00 | 0.00 | 32 | 1010.1 |
| 20260503225552 | 58 | 317 | 6.0 | 13.0 | 0.00 | 0.00 | 0.00 | 32 | 1010.0 |
| 20260503225052 | 58 | 0 | 4.0 | 13.0 | 0.00 | 0.00 | 0.00 | 32 | 1010.0 |
| 20260503224606 | 58 | 335 | 2.0 | 10.0 | 0.00 | 0.00 | 0.00 | 33 | 1010.0 |
| 20260503224052 | 58 | 224 | 2.0 | 9.0 | 0.00 | 0.00 | 0.00 | 33 | 1010.0 |
| 20260503223552 | 58 | 297 | 2.0 | 10.0 | 0.00 | 0.00 | 0.00 | 33 | 1010.0 |
| 20260503223058 | 58 | 240 | 3.0 | 10.0 | 0.00 | 0.00 | 0.00 | 31 | 1010.1 |
| 20260503222552 | 58 | 312 | 2.0 | 10.0 | 0.00 | 0.00 | 0.00 | 31 | 1010.1 |
| 20260503222051 | 58 | 358 | 2.0 | 10.0 | 0.00 | 0.00 | 0.00 | 32 | 1010.1 |
| 20260503221603 | 58 | 323 | 2.0 | 10.0 | 0.00 | 0.00 | 0.00 | 32 | 1010.0 |
| 20260503221051 | 58 | 271 | 2.0 | 13.0 | 0.00 | 0.00 | 0.00 | 31 | 1010.0 |
| 20260503220553 | 59 | 256 | 2.0 | 13.0 | 0.00 | 0.00 | 0.00 | 32 | 1010.0 |
| 20260503220058 | 58 | 0 | 3.0 | 10.0 | 0.00 | 0.00 | 0.00 | 31 | 1010.1 |
| 20260503215552 | 58 | 293 | 2.0 | 10.0 | 0.00 | 0.00 | 0.00 | 30 | 1010.1 |
| 20260503215052 | 58 | 301 | 2.0 | 12.0 | 0.00 | 0.00 | 0.00 | 31 | 1010.0 |
| 20260503214600 | 58 | 234 | 3.0 | 14.0 | 0.00 | 0.00 | 0.00 | 31 | 1010.0 |
| 20260503214052 | 58 | 256 | 4.0 | 14.0 | 0.00 | 0.00 | 0.00 | 29 | 1009.9 |
| 20260503213555 | 59 | 267 | 2.0 | 14.0 | 0.00 | 0.00 | 0.00 | 29 | 1009.9 |
| 20260503213053 | 59 | 308 | 2.0 | 14.0 | 0.00 | 0.00 | 0.00 | 31 | 1009.8 |
| 20260503212552 | 59 | 341 | 4.0 | 14.0 | 0.00 | 0.00 | 0.00 | 29 | 1009.8 |
| 20260503212052 | 59 | 260 | 2.0 | 12.0 | 0.00 | 0.00 | 0.00 | 30 | 1009.8 |
| 20260503211559 | 59 | 258 | 3.0 | 12.0 | 0.00 | 0.00 | 0.00 | 29 | 1009.8 |
| 20260503211054 | 59 | 285 | 5.0 | 13.0 | 0.00 | 0.00 | 0.00 | 29 | 1009.8 |
| 20260503210552 | 59 | 276 | 4.0 | 15.0 | 0.00 | 0.00 | 0.00 | 29 | 1009.7 |
| 20260503210057 | 59 | 245 | 5.0 | 15.0 | 0.00 | 0.00 | 0.00 | 27 | 1009.9 |
| 20260503205552 | 59 | 208 | 4.0 | 15.0 | 0.00 | 0.00 | 0.00 | 28 | 1009.8 |
| 20260503205052 | 60 | 221 | 2.0 | 12.0 | 0.00 | 0.00 | 0.00 | 29 | 1009.8 |
| 20260503204554 | 59 | 0 | 3.0 | 19.0 | 0.00 | 0.00 | 0.00 | 31 | 1009.9 |
| 20260503204053 | 59 | 260 | 4.0 | 19.0 | 0.00 | 0.00 | 0.00 | 29 | 1009.9 |
| 20260503203552 | 58 | 246 | 6.0 | 19.0 | 0.00 | 0.00 | 0.00 | 28 | 1009.8 |
| 20260503203112 | 58 | 254 | 8.0 | 17.0 | 0.00 | 0.00 | 0.00 | 27 | 1009.9 |
| 20260503202553 | 58 | 260 | 5.0 | 13.0 | 0.00 | 0.00 | 0.00 | 29 | 1010.0 |
| 20260503202053 | 58 | 296 | 5.0 | 13.0 | 0.00 | 0.00 | 0.00 | 30 | 1010.0 |
| 20260503201555 | 59 | 314 | 4.0 | 14.0 | 0.00 | 0.00 | 0.00 | 29 | 1010.0 |
| 20260503201052 | 58 | 303 | 3.0 | 17.0 | 0.00 | 0.00 | 0.00 | 29 | 1010.0 |
| 20260503200552 | 59 | 333 | 5.0 | 18.0 | 0.00 | 0.00 | 0.00 | 29 | 1010.1 |
| 20260503200052 | 59 | 214 | 4.0 | 18.0 | 0.00 | 0.00 | 0.00 | 31 | 1010.1 |
| 20260503195552 | 59 | 256 | 6.0 | 18.0 | 0.00 | 0.00 | 0.00 | 31 | 1010.3 |
| 20260503195052 | 58 | 266 | 4.0 | 14.0 | 0.00 | 0.00 | 0.00 | 32 | 1010.2 |
| 20260503194557 | 58 | 285 | 4.0 | 19.0 | 0.00 | 0.00 | 0.00 | 31 | 1010.3 |
| 20260503194052 | 58 | 267 | 5.0 | 19.0 | 0.00 | 0.00 | 0.00 | 28 | 1010.4 |
| 20260503193552 | 58 | 314 | 6.0 | 19.0 | 0.00 | 0.00 | 0.00 | 31 | 1010.3 |
| 20260503193055 | 58 | 276 | 6.0 | 16.0 | 0.00 | 0.00 | 0.00 | 29 | 1010.4 |
| 20260503192551 | 58 | 272 | 4.0 | 14.0 | 0.00 | 0.00 | 0.00 | 30 | 1010.5 |
| 20260503192051 | 58 | 335 | 3.0 | 14.0 | 0.00 | 0.00 | 0.00 | 30 | 1010.6 |
| 20260503191556 | 57 | 329 | 3.0 | 19.0 | 0.00 | 0.00 | 0.00 | 32 | 1010.8 |
| 20260503191053 | 57 | 326 | 6.0 | 19.0 | 0.00 | 0.00 | 0.00 | 30 | 1010.8 |
| 20260503190552 | 58 | 204 | 6.0 | 14.0 | 0.00 | 0.00 | 0.00 | 31 | 1010.7 |
| 20260503190108 | 57 | 289 | 5.0 | 13.0 | 0.00 | 0.00 | 0.00 | 31 | 1010.8 |
| 20260503185552 | 58 | 279 | 3.0 | 13.0 | 0.00 | 0.00 | 0.00 | 31 | 1010.8 |
| 20260503185052 | 57 | 314 | 5.0 | 17.0 | 0.00 | 0.00 | 0.00 | 30 | 1010.9 |
| 20260503184554 | 57 | 262 | 6.0 | 17.0 | 0.00 | 0.00 | 0.00 | 29 | 1010.7 |
| 20260503184052 | 58 | 274 | 5.0 | 14.0 | 0.00 | 0.00 | 0.00 | 32 | 1010.8 |
| 20260503183553 | 58 | 279 | 4.0 | 14.0 | 0.00 | 0.00 | 0.00 | 33 | 1010.9 |
| 20260503183055 | 58 | 225 | 5.0 | 14.0 | 0.00 | 0.00 | 0.00 | 30 | 1010.9 |
| 20260503182552 | 57 | 258 | 5.0 | 14.0 | 0.00 | 0.00 | 0.00 | 32 | 1010.8 |
| 20260503182052 | 57 | 158 | 4.0 | 14.0 | 0.00 | 0.00 | 0.00 | 34 | 1010.9 |
| 20260503181600 | 57 | 305 | 4.0 | 14.0 | 0.00 | 0.00 | 0.00 | 32 | 1010.9 |
| 20260503181052 | 55 | 355 | 4.0 | 14.0 | 0.00 | 0.00 | 0.00 | 33 | 1010.9 |
| 20260503180552 | 55 | 285 | 6.0 | 14.0 | 0.00 | 0.00 | 0.00 | 32 | 1010.9 |
| 20260503180055 | 56 | 262 | 5.0 | 11.0 | 0.00 | 0.00 | 0.00 | 31 | 1010.9 |
| 20260503175552 | 57 | 311 | 3.0 | 17.0 | 0.00 | 0.00 | 0.00 | 33 | 1011.0 |
| 20260503175052 | 56 | 297 | 3.0 | 20.0 | 0.00 | 0.00 | 0.00 | 32 | 1010.9 |
| 20260503174554 | 55 | 238 | 6.0 | 21.0 | 0.00 | 0.00 | 0.00 | 31 | 1011.1 |
| 20260503174052 | 55 | 333 | 6.0 | 21.0 | 0.00 | 0.00 | 0.00 | 32 | 1011.1 |
| 20260503173552 | 54 | 12 | 4.0 | 17.0 | 0.00 | 0.00 | 0.00 | 32 | 1011.0 |
| 20260503173055 | 54 | 20 | 7.0 | 17.0 | 0.00 | 0.00 | 0.00 | 30 | 1011.1 |
| 20260503172552 | 55 | 337 | 5.0 | 19.0 | 0.00 | 0.00 | 0.00 | 31 | 1011.3 |
| 20260503172052 | 55 | 243 | 6.0 | 19.0 | 0.00 | 0.00 | 0.00 | 31 | 1011.2 |
| 20260503171604 | 54 | 334 | 5.0 | 18.0 | 0.00 | 0.00 | 0.00 | 32 | 1011.3 |
| 20260503171052 | 53 | 277 | 5.0 | 18.0 | 0.00 | 0.00 | 0.00 | 34 | 1011.3 |
| 20260503170552 | 53 | 33 | 9.0 | 18.0 | 0.00 | 0.00 | 0.00 | 31 | 1011.4 |
| 20260503150555 | 49 | 317 | 5.0 | 11.0 | 0.00 | 0.00 | 0.00 | 44 | 1012.3 |
| 20260503131053 | 47 | 338 | 7.0 | 18.0 | 0.00 | 0.00 | 0.00 | 51 | 1012.4 |
| 20260503130554 | 47 | 306 | 3.0 | 10.0 | 0.00 | 0.00 | 0.00 | 51 | 1012.4 |
| 20260503110552 | 41 | 316 | 2.0 | 8.0 | 0.00 | 0.00 | 0.00 | 63 | 1012.0 |
| 20260503100108 | 41 | 308 | 6.0 | 12.0 | 0.00 | 0.01 | 0.00 | 61 | 1011.0 |
| 20260503081559 | 42 | 337 | 4.0 | 13.0 | 0.00 | 0.01 | 0.00 | 59 | 1010.2 |
| 20260503081052 | 43 | 9 | 4.0 | 13.0 | 0.00 | 0.01 | 0.00 | 58 | 1010.1 |
| 20260503080552 | 43 | 345 | 3.0 | 11.0 | 0.00 | 0.01 | 0.00 | 58 | 1010.0 |
| 20260503072552 | 44 | 343 | 4.0 | 12.0 | 0.00 | 0.03 | 0.00 | 54 | 1010.0 |
| 20260503072052 | 44 | 300 | 5.0 | 11.0 | 0.00 | 0.03 | 0.00 | 54 | 1010.0 |
| 20260503071601 | 44 | 346 | 4.0 | 14.0 | 0.00 | 0.03 | 0.00 | 54 | 1009.9 |
| 20260503071051 | 44 | 324 | 5.0 | 14.0 | 0.00 | 0.03 | 0.00 | 54 | 1010.1 |
| 20260503070555 | 44 | 343 | 4.0 | 11.0 | 0.00 | 0.03 | 0.00 | 54 | 1010.0 |
| 20260503060116 | 45 | 353 | 3.0 | 8.0 | 0.00 | 0.03 | 0.00 | 54 | 1010.2 |
| 20260503055052 | 45 | 333 | 3.0 | 9.0 | 0.00 | 0.03 | 0.00 | 55 | 1010.2 |
| 20260503054605 | 45 | 2 | 3.0 | 6.0 | 0.00 | 0.03 | 0.00 | 55 | 1010.2 |
| 20260503054054 | 45 | 12 | 3.0 | 7.0 | 0.00 | 0.03 | 0.00 | 55 | 1010.2 |
| 20260503053552 | 45 | 341 | 2.0 | 7.0 | 0.00 | 0.03 | 0.00 | 55 | 1010.3 |
| 20260503053052 | 45 | 33 | 2.0 | 9.0 | 0.00 | 0.03 | 0.00 | 56 | 1010.3 |
| 20260503052554 | 45 | 2 | 3.0 | 10.0 | 0.00 | 0.03 | 0.00 | 55 | 1010.2 |
| 20260503052052 | 45 | 4 | 2.0 | 10.0 | 0.00 | 0.03 | 0.00 | 55 | 1010.3 |
| 20260503051556 | 45 | 360 | 3.0 | 10.0 | 0.00 | 0.03 | 0.00 | 55 | 1010.3 |
| 20260503051051 | 45 | 350 | 2.0 | 5.0 | 0.00 | 0.03 | 0.00 | 56 | 1010.4 |
| 20260503050554 | 45 | 352 | 2.0 | 5.0 | 0.00 | 0.03 | 0.00 | 55 | 1010.5 |
| 20260503050054 | 46 | 360 | 2.0 | 5.0 | 0.00 | 0.03 | 0.00 | 55 | 1010.5 |
| 20260503045554 | 46 | 329 | 2.0 | 9.0 | 0.00 | 0.03 | 0.00 | 55 | 1010.7 |
| 20260503045053 | 46 | 345 | 2.0 | 9.0 | 0.00 | 0.03 | 0.00 | 54 | 1010.7 |
| 20260503044554 | 46 | 351 | 2.0 | 8.0 | 0.00 | 0.03 | 0.00 | 54 | 1010.8 |
| 20260503044051 | 46 | 357 | 3.0 | 7.0 | 0.00 | 0.03 | 0.00 | 54 | 1010.8 |
| 20260503043551 | 46 | 335 | 3.0 | 7.0 | 0.00 | 0.03 | 0.00 | 53 | 1010.8 |
| 20260503043052 | 46 | 325 | 2.0 | 6.0 | 0.00 | 0.03 | 0.00 | 54 | 1010.9 |
| 20260503042551 | 46 | 312 | 2.0 | 7.0 | 0.00 | 0.03 | 0.00 | 53 | 1011.0 |
| 20260503042052 | 46 | 312 | 2.0 | 9.0 | 0.00 | 0.03 | 0.00 | 52 | 1011.0 |